Location: Appeville
(49.3218°N, 1.3427°W)
Time: 07:16:17
(UTC+00:00)

Cosmos 1346 Rocket - Pass Details

Date: 08 December 2019
Orbit: 524 x 555 km, 81.2° (Epoch: 28 January)

Event Time Altitude Azimuth Distance (km) Brightness Sun altitude
Rises 06:00:15 0° 182° (S) 2,646 6.5 -16.5°
Reaches altitude 10° 06:02:24 10° 179° (S) 1,762 5.6 -16.2°
Maximum altitude 06:06:13 63° 98° (E) 594 3.2 -15.6°
Drops below altitude 10° 06:10:05 10° 18° (NNE) 1,782 5.4 -15.0°
Sets 06:12:16 0° 15° (NNE) 2,679 6.3 -14.6°
